[[{"header":{"parameterUnit":"m.s-1","parameterCategory":1,"la1":30.2991,"la2":30.254,"lo1":-89.0895,"lo2":-89.0444,"dy":0.0017,"dx":0.0017,"nx":28,"ny":28,"refTime":"2025-09-06T09:00:00:Z","depth":0,"parameterNumber":2,"parameterNumberName":"U-component_of_WINDS"},"data":[0,0,0,0,0,0,0,0,0,0,0,0,0,0,0,0,0,0,0,0,0,0,0,0,0,0,0,0,0,0,0,0,0,0,0,0,0,0,0,0,0,0,0,0,0,0,0,0,0,0,0,0,0,0,0,0,0,0,-1.2355,-1.2356,0,-1.2416,-1.2417,-1.2418,-1.2395,-1.2394,-1.2393,-1.2391,-1.2454,-1.2457,-1.246,0,0,0,0,0,0,0,0,0,0,0,0,0,-1.222,-1.2222,-1.2355,-1.2356,-1.2357,-1.2416,-1.2417,-1.2418,-1.2396,-1.2394,-1.2392,-1.2391,-1.2453,-1.2456,-1.246,0,0,0,0,0,0,0,0,0,0,0,0,0,-1.2279,-1.2223,-1.2355,-1.2353,-1.2353,-1.2416,-1.2417,-1.2418,-1.2396,-1.2394,-1.2392,-1.239,-1.2452,-1.2456,-1.246,-1.2529,0,0,-1.2474,-1.2476,0,0,0,0,0,0,0,0,-1.2276,-1.2284,-1.2353,-1.2353,-1.2354,-1.2396,-1.2392,-1.2455,-1.2396,-1.238,-1.2391,-1.2389,-1.2436,-1.2442,-1.2458,-1.2532,-1.2535,-1.2474,-1.2477,-1.2479,-1.248,0,0,0,0,0,0,0,-1.2272,-1.2282,-1.2379,-1.2354,-1.2354,-1.2349,-1.2355,-1.2404,-1.2419,-1.2381,-1.238,-1.2387,-1.2436,-1.2454,-1.2459,-1.2535,-1.2474,-1.2478,-1.2481,-1.2483,-1.2669,-1.2671,0,0,0,0,0,0,-1.2268,-1.2278,-1.2378,-1.2381,-1.2309,-1.2353,-1.236,-1.2385,-1.2418,-1.2421,-1.2389,-1.2386,-1.2447,-1.2454,-1.2461,-1.2544,-1.2479,-1.2483,-1.2486,-1.2666,-1.2669,-1.2672,0,0,0,0,0,0,-1.2265,-1.2277,-1.2375,-1.2329,-1.2342,-1.2357,-1.2385,-1.2387,-1.2404,-1.2424,-1.2427,-1.2404,-1.2446,-1.2455,-1.2512,-1.2546,-1.2485,-1.2489,-1.2664,-1.2667,-1.267,-1.271,0,0,0,0,0,0,-1.2261,-1.2276,-1.2302,-1.233,-1.2344,-1.2425,-1.2387,-1.239,-1.2412,-1.2409,-1.2439,-1.2442,-1.2445,-1.2506,-1.2517,-1.2551,-1.2492,-1.2661,-1.2665,-1.2669,-1.2706,-1.2715,-1.2722,0,0,0,0,0,-1.2256,-1.2311,-1.2304,-1.2316,-1.2378,-1.2427,-1.2435,-1.2437,-1.2415,-1.2441,-1.2454,-1.2441,-1.254,-1.2512,-1.2524,-1.256,-1.2659,-1.2664,-1.2669,-1.2703,-1.2713,-1.2722,0,0,0,0,0,0,-1.2287,-1.2315,-1.2307,-1.2373,-1.2398,-1.2424,-1.2457,-1.2448,-1.2481,-1.2477,-1.2478,-1.2485,-1.2544,-1.2557,-1.2525,-1.2628,-1.2596,-1.2604,-1.2617,-1.2628,-1.2635,-1.2632,-1.2496,0,0,0,0,0,-1.2301,-1.234,-1.2362,-1.2417,-1.243,-1.2442,-1.2464,-1.2463,-1.2489,-1.25,-1.2517,-1.2543,-1.2579,-1.2604,-1.2639,-1.2707,-1.2714,-1.2738,-1.2746,-1.2752,-1.276,-1.2797,-1.2808,-1.2688,-1.2688,-1.2688,0,0,-1.2332,-1.2352,-1.2376,-1.2424,-1.2444,-1.2483,-1.2451,-1.2494,-1.2524,-1.2506,-1.2562,-1.2575,-1.2604,-1.2667,-1.2695,-1.268,-1.2794,-1.2759,-1.2764,-1.2768,-1.2803,-1.2815,-1.2825,-1.2692,-1.2691,-1.2691,0,0,-1.2408,-1.2426,-1.2475,-1.2495,-1.2524,-1.2531,-1.2543,-1.257,-1.2578,-1.2633,-1.2621,-1.2656,-1.2719,-1.274,-1.276,-1.2842,-1.2831,-1.2853,-1.2896,-1.2932,-1.2941,-1.295,-1.298,-1.2991,-1.286,-1.286,-1.286,0,-1.2442,-1.2501,-1.2501,-1.2546,-1.2567,-1.2552,-1.2602,-1.2621,-1.2661,-1.2676,-1.2658,-1.2737,-1.2755,-1.2823,-1.2843,-1.2859,-1.2873,-1.2851,-1.294,-1.2948,-1.2956,-1.2985,-1.2996,-1.2863,-1.2862,-1.2862,-1.2862,0,-1.2542,-1.2583,-1.2619,-1.2658,-1.2683,-1.273,-1.2736,-1.2762,-1.2758,-1.2767,-1.2824,-1.2845,-1.2884,-1.29,-1.2897,-1.2967,-1.2957,-1.2939,-1.2907,-1.297,-1.2997,-1.3008,-1.2866,-1.2865,-1.2865,-1.2864,0,0,-1.2641,-1.2678,-1.2691,-1.2709,-1.2739,-1.2771,-1.2817,-1.2855,-1.2877,-1.2904,-1.2943,-1.2996,-1.298,-1.3002,-1.3001,-1.3033,-1.3097,-1.3011,-1.3012,-1.3027,-1.3177,-1.3191,-1.3204,-1.3089,-1.3092,-1.3093,-1.3175,0,-1.272,-1.2801,-1.2801,-1.2875,-1.2913,-1.2899,-1.2939,-1.2962,-1.2971,-1.3004,-1.3014,-1.3052,-1.3027,-1.304,-1.3071,-1.3083,-1.3127,-1.3077,-1.3126,-1.3128,-1.3121,-1.3218,-1.3233,-1.3309,-1.3185,-1.3187,-1.3188,0,-1.2824,-1.2855,-1.2932,-1.2958,-1.2974,-1.3009,-1.3044,-1.3076,-1.3102,-1.3106,-1.3129,-1.3123,-1.317,-1.3135,-1.3199,-1.3164,-1.3184,-1.3193,-1.3196,-1.3202,-1.3163,-1.3228,-1.3333,-1.3345,-1.3205,-1.3203,-1.3202,0,-1.289,-1.295,-1.3005,-1.302,-1.305,-1.3075,-1.3089,-1.3113,-1.3135,-1.3165,-1.318,-1.3215,-1.3234,-1.3261,-1.3265,-1.3239,-1.3329,-1.3295,-1.3335,-1.3335,-1.3356,-1.3355,-1.3467,-1.3366,-1.3366,-1.3366,-1.3365,0,-1.2979,-1.3028,-1.3035,-1.3068,-1.3122,-1.3122,-1.3175,-1.3186,-1.3207,-1.3243,-1.3231,-1.3265,-1.3267,-1.3301,-1.3304,-1.3357,-1.3365,-1.337,-1.3371,-1.3372,-1.3372,-1.3386,-1.3382,-1.3369,-1.3368,-1.3367,-1.3367,0,-1.3063,-1.3069,-1.3128,-1.3151,-1.3158,-1.3197,-1.3217,-1.3249,-1.3256,-1.3301,-1.3311,-1.3323,-1.3362,-1.3368,-1.3414,-1.3416,-1.348,-1.3474,-1.3472,-1.3471,-1.3511,-1.3508,-1.3638,-1.3656,-1.3542,-1.3543,-1.3544,0,-1.312,-1.3157,-1.3184,-1.3207,-1.3223,-1.326,-1.3282,-1.3283,-1.3307,-1.3339,-1.3367,-1.3405,-1.3436,-1.35,-1.3513,-1.3548,-1.3544,-1.3587,-1.3549,-1.355,-1.3546,-1.3544,-1.3548,-1.3595,-1.3596,-1.3597,-1.3598,0,-1.3222,-1.3223,-1.3257,-1.3291,-1.3319,-1.3346,-1.3372,-1.3391,-1.3394,-1.3422,-1.3463,-1.3486,-1.3533,-1.3572,-1.3607,-1.3621,-1.3611,-1.3609,-1.3621,-1.3624,-1.3621,-1.3624,-1.3493,-1.3607,-1.3606,-1.3606,-1.3605,-1.3605,-1.3295,-1.3328,-1.3352,-1.3389,-1.3408,-1.3432,-1.3463,-1.3474,-1.3508,-1.3546,-1.3544,-1.3588,-1.3612,-1.3658,-1.3674,-1.3709,-1.3695,-1.3711,-1.3715,-1.372,-1.3724,-1.3614,-1.3715,-1.3715,-1.3714,-1.3714,-1.3714,0,-1.3398,-1.3412,-1.3446,-1.3482,-1.3512,-1.3498,-1.3526,-1.3551,-1.3591,-1.3614,-1.3644,-1.369,-1.3727,-1.3742,-1.3778,-1.3803,-1.3799,-1.3812,-1.3811,-1.3815,-1.3734,-1.3721,-1.3815,-1.3815,-1.3815,-1.3815,-1.3815,-1.3815,-1.3454,-1.3508,-1.3512,-1.3575,-1.3589,-1.3632,-1.3649,-1.3671,-1.369,-1.3742,-1.3772,-1.3781,-1.3801,-1.3838,-1.3871,-1.3874,-1.3889,-1.3905,-1.3906,-1.3831,-1.3821,-1.3811,-1.3799,-1.3907,-1.3908,-1.3984,-1.3985,-1.3985]},{"header":{"parameterUnit":"m.s-1","parameterCategory":1,"la1":30.2991,"la2":30.254,"lo1":-89.0895,"lo2":-89.0444,"dy":0.0017,"dx":0.0017,"nx":28,"ny":28,"refTime":"2025-09-06T09:00:00:Z","depth":0,"parameterNumber":3,"parameterNumberName":"V-component_of_WINDS"},"data":[0,0,0,0,0,0,0,0,0,0,0,0,0,0,0,0,0,0,0,0,0,0,0,0,0,0,0,0,0,0,0,0,0,0,0,0,0,0,0,0,0,0,0,0,0,0,0,0,0,0,0,0,0,0,0,0,0,0,-5.6001,-5.6002,0,-5.6083,-5.6084,-5.6085,-5.6029,-5.6026,-5.6024,-5.6021,-5.6099,-5.6103,-5.6107,0,0,0,0,0,0,0,0,0,0,0,0,0,-5.5791,-5.5795,-5.6001,-5.6002,-5.6003,-5.6083,-5.6084,-5.6085,-5.6029,-5.6026,-5.6023,-5.602,-5.6097,-5.6102,-5.6108,0,0,0,0,0,0,0,0,0,0,0,0,0,-5.5878,-5.5797,-5.6001,-5.5985,-5.5985,-5.6083,-5.6084,-5.6085,-5.603,-5.6026,-5.6022,-5.6019,-5.6096,-5.6102,-5.6108,-5.6225,0,0,-5.6129,-5.6132,0,0,0,0,0,0,0,0,-5.5874,-5.5886,-5.5987,-5.5987,-5.5986,-5.6042,-5.6038,-5.6132,-5.6031,-5.6012,-5.6021,-5.6017,-5.6082,-5.609,-5.6113,-5.6228,-5.6232,-5.6129,-5.6133,-5.6136,-5.6138,0,0,0,0,0,0,0,-5.5868,-5.5882,-5.6033,-5.5988,-5.5988,-5.5972,-5.598,-5.6056,-5.6067,-5.6014,-5.601,-5.6021,-5.6081,-5.6107,-5.6115,-5.6233,-5.6129,-5.6135,-5.6139,-5.6142,-5.6447,-5.6451,0,0,0,0,0,0,-5.5864,-5.5878,-5.6031,-5.6036,-5.592,-5.5979,-5.5988,-5.6028,-5.6066,-5.6069,-5.6024,-5.6018,-5.6098,-5.6107,-5.6117,-5.6256,-5.6136,-5.6142,-5.6146,-5.6442,-5.6447,-5.6452,0,0,0,0,0,0,-5.586,-5.5878,-5.6027,-5.5956,-5.5974,-5.5987,-5.6031,-5.6031,-5.6057,-5.6074,-5.6075,-5.6048,-5.6095,-5.6108,-5.6199,-5.6257,-5.6145,-5.6151,-5.6438,-5.6444,-5.645,-5.6534,0,0,0,0,0,0,-5.5854,-5.5877,-5.5923,-5.5957,-5.5978,-5.611,-5.6035,-5.6036,-5.6069,-5.6062,-5.6097,-5.6099,-5.6093,-5.6189,-5.6205,-5.6265,-5.6156,-5.6432,-5.644,-5.6448,-5.6526,-5.6542,-5.6556,0,0,0,0,0,-5.5846,-5.5942,-5.5925,-5.5944,-5.6036,-5.6113,-5.6125,-5.6117,-5.6074,-5.6119,-5.613,-5.6098,-5.6249,-5.6199,-5.6217,-5.6279,-5.6429,-5.6438,-5.6447,-5.6519,-5.6539,-5.6555,0,0,0,0,0,0,-5.5911,-5.5946,-5.5928,-5.6038,-5.6073,-5.6104,-5.616,-5.6138,-5.6185,-5.6176,-5.6163,-5.6172,-5.6267,-5.6282,-5.6226,-5.6393,-5.6331,-5.6345,-5.638,-5.6399,-5.6414,-5.6408,-5.6162,0,0,0,0,0,-5.5939,-5.6001,-5.6027,-5.6121,-5.614,-5.6148,-5.6181,-5.6172,-5.6208,-5.6222,-5.6239,-5.6273,-5.6328,-5.6364,-5.6415,-5.6528,-5.6534,-5.6579,-5.6594,-5.6606,-5.6618,-5.6677,-5.6697,-5.6483,-5.6482,-5.6482,0,0,-5.5995,-5.6022,-5.6062,-5.6135,-5.6161,-5.6224,-5.616,-5.623,-5.6276,-5.6231,-5.6319,-5.6333,-5.637,-5.6472,-5.6518,-5.6487,-5.6679,-5.6618,-5.6628,-5.6633,-5.6689,-5.6709,-5.6727,-5.6489,-5.6488,-5.6487,0,0,-5.613,-5.6158,-5.6239,-5.6267,-5.6309,-5.6313,-5.6333,-5.6367,-5.6376,-5.6464,-5.6432,-5.6485,-5.658,-5.6607,-5.6634,-5.678,-5.6752,-5.6797,-5.6876,-5.6934,-5.6951,-5.6966,-5.7017,-5.7036,-5.6808,-5.6809,-5.6809,0,-5.6195,-5.6291,-5.6283,-5.6355,-5.6388,-5.6353,-5.6435,-5.6462,-5.6517,-5.6539,-5.6505,-5.6624,-5.6646,-5.6754,-5.6789,-5.6812,-5.6833,-5.6793,-5.6949,-5.6964,-5.6978,-5.7027,-5.7046,-5.6814,-5.6813,-5.6813,-5.6812,0,-5.6367,-5.6434,-5.6494,-5.6552,-5.6591,-5.6667,-5.6669,-5.671,-5.6698,-5.6705,-5.6794,-5.682,-5.6876,-5.6901,-5.6889,-5.7007,-5.6987,-5.6951,-5.6889,-5.7004,-5.705,-5.7068,-5.6821,-5.6819,-5.6818,-5.6816,0,0,-5.6545,-5.6598,-5.662,-5.6646,-5.6689,-5.674,-5.6814,-5.687,-5.6905,-5.6944,-5.7005,-5.7086,-5.7054,-5.7084,-5.7075,-5.7126,-5.724,-5.7084,-5.7085,-5.7112,-5.737,-5.7396,-5.7418,-5.7222,-5.7225,-5.7228,-5.7367,0,-5.6682,-5.6814,-5.681,-5.6932,-5.6993,-5.6961,-5.7025,-5.7058,-5.7067,-5.7118,-5.7126,-5.7184,-5.7138,-5.7155,-5.7205,-5.7215,-5.7291,-5.7205,-5.7276,-5.7279,-5.7268,-5.7442,-5.747,-5.76,-5.7385,-5.7388,-5.739,0,-5.686,-5.6908,-5.7037,-5.7072,-5.7097,-5.7156,-5.7207,-5.7257,-5.7293,-5.7296,-5.733,-5.7312,-5.7385,-5.7322,-5.7422,-5.7363,-5.7392,-5.7401,-5.7406,-5.7412,-5.7341,-5.7452,-5.7642,-5.7661,-5.7418,-5.7416,-5.7414,0,-5.6977,-5.7073,-5.7163,-5.7185,-5.7228,-5.727,-5.7289,-5.7322,-5.7356,-5.74,-5.7422,-5.7474,-5.7502,-5.7541,-5.7537,-5.7492,-5.7638,-5.7575,-5.7641,-5.7641,-5.7673,-5.7671,-5.7869,-5.7693,-5.7692,-5.7692,-5.7691,0,-5.713,-5.721,-5.7216,-5.7271,-5.7359,-5.7352,-5.7439,-5.7453,-5.7482,-5.7538,-5.7513,-5.7565,-5.7557,-5.7609,-5.7606,-5.7689,-5.7702,-5.7705,-5.7703,-5.7707,-5.7707,-5.7725,-5.7716,-5.7697,-5.7696,-5.7695,-5.7694,0,-5.7275,-5.7282,-5.7377,-5.7411,-5.7421,-5.7485,-5.7512,-5.7563,-5.757,-5.7641,-5.7657,-5.7668,-5.7728,-5.7728,-5.7796,-5.7794,-5.7895,-5.7883,-5.7884,-5.7881,-5.7947,-5.7941,-5.8164,-5.8192,-5.7998,-5.8,-5.8001,0,-5.7372,-5.7433,-5.7474,-5.7511,-5.7534,-5.7593,-5.7628,-5.7624,-5.7661,-5.7707,-5.7752,-5.781,-5.7857,-5.7954,-5.7966,-5.8017,-5.8006,-5.8081,-5.8013,-5.8016,-5.8006,-5.8003,-5.8008,-5.8094,-5.8096,-5.8097,-5.8099,0,-5.7544,-5.7545,-5.7598,-5.7654,-5.7697,-5.774,-5.7779,-5.781,-5.7809,-5.7852,-5.7915,-5.7951,-5.8021,-5.8079,-5.8129,-5.8146,-5.8122,-5.812,-5.8138,-5.8143,-5.814,-5.8142,-5.7919,-5.8115,-5.8113,-5.8112,-5.8111,-5.8111,-5.7667,-5.772,-5.7758,-5.7818,-5.7848,-5.7885,-5.7935,-5.7949,-5.8002,-5.806,-5.8053,-5.8123,-5.8156,-5.8221,-5.8243,-5.8295,-5.8269,-5.8295,-5.8302,-5.8308,-5.8315,-5.8133,-5.8304,-5.8304,-5.8304,-5.8303,-5.8303,0,-5.7838,-5.786,-5.7916,-5.7973,-5.802,-5.7996,-5.8038,-5.8078,-5.8141,-5.8175,-5.8221,-5.8293,-5.8348,-5.8365,-5.8419,-5.8457,-5.8448,-5.8472,-5.8468,-5.8472,-5.8336,-5.8315,-5.8479,-5.8479,-5.8478,-5.8478,-5.8478,-5.8478,-5.7932,-5.802,-5.8025,-5.8127,-5.8148,-5.8218,-5.8244,-5.8278,-5.8305,-5.8387,-5.8434,-5.8445,-5.8472,-5.8527,-5.8577,-5.858,-5.86,-5.8629,-5.8628,-5.85,-5.8482,-5.8465,-5.8445,-5.8634,-5.8634,-5.8759,-5.8761,-5.8762]}]]